Location: Most
(50.5133°N, 13.6207°E)
Time: 13:59:17
(UTC+01:00)

UNHA 3 R/B - Pass Details

Date: 25 September 2020
Orbit: 479 x 556 km, 97.4° (Epoch: 27 October)

Event Time Altitude Azimuth Distance (km) Brightness Sun altitude
Rises 06:11:54 0° 4° (N) 2,626 9.0 -8.0°
Reaches altitude 10° 06:14:08 10° 354° (N) 1,749 7.9 -7.6°
Maximum altitude 06:17:27 30° 292° (WNW) 950 6.1 -7.1°
Drops below altitude 10° 06:20:51 10° 230° (SW) 1,777 7.4 -6.6°
Sets 06:23:08 0° 220° (SW) 2,675 8.4 -6.2°
